Flag for Kazakhstan Weather past 2 weeks in Qyzylorda, Kazakhstan

Now
79 °F

Sunny.


Feels Like: 78 °F
Forecast: 70 / 94 °F
Wind: 6 mph from North

Location: Kzyl-Orda

Current Time: Jul 30, 2015 at 10:24:20 PM

Latest Report: Jul 30, 2015 at 10:00 PM


Visibility: 10 mi

Pressure: 29.83 "Hg

Humidity: 24%

Dew point: 39 °F

Location of QyzylordaLocation

Historic Weather in Qyzylorda — Graph

°F

Qyzylorda temperature yesterday

Maximum temperature yesterday: 93 °F (at 6:00 PM)
Minimum temperature yesterday: 61 °F (at 6:30 AM)
Average temperature yesterday: 81 °F

Past Weeks' High & Low Weather Summary

 TemperatureHumidityPressure
High108 °F (Jul 17, 4:00 PM)68% (Jul 27, 6:30 AM)29.92 "Hg (Jul 27, 6:30 AM)
Low59 °F (Jul 25, 6:30 AM)9% (Jul 17, 3:00 PM)29.53 "Hg (Jul 17, 6:00 PM)
Average83 °F28%29.73 "Hg
* Reported Jul 15 9:00 PM — Jul 30 9:00 PM, Qyzylorda, Weather by CustomWeather, © 2015

Note: Actual official high and low records may vary slightly from our data, if they occured in-between our weather recording intervals... More about our weather records

Advertising

Qyzylorda weather history for previous 24 hours

 ConditionsComfort  
Time TempWeatherWind HumidityBarometerVisibility
9:00 PM
Thu, Jul 30
86 °FSunny.6 mph17%29.83 "Hg10 mi
8:30 PM88 °FSunny.8 mph15%29.83 "Hg10 mi
8:00 PM91 °FSunny.8 mph13%29.83 "Hg10 mi
7:30 PM91 °FSunny.8 mph13%29.83 "Hg10 mi
7:00 PM93 °FSunny.10 mph11%29.83 "Hg10 mi
6:30 PM93 °FSunny.8 mph11%29.83 "Hg10 mi
6:00 PM93 °FSunny.10 mph11%29.83 "Hg10 mi
5:30 PM93 °FPassing clouds.8 mph13%29.83 "HgN/A
5:00 PM93 °FSunny.10 mph11%29.83 "Hg10 mi
4:30 PM93 °FSunny.6 mph13%29.83 "Hg10 mi
4:00 PM91 °FSunny.13 mph12%29.83 "Hg10 mi
3:30 PM93 °FPassing clouds.10 mph12%29.83 "HgN/A
3:00 PM91 °FSunny.13 mph13%29.83 "Hg10 mi
2:30 PM91 °FSunny.10 mph14%29.83 "Hg10 mi
2:00 PM91 °FSunny.13 mph13%29.86 "Hg10 mi
1:30 PM90 °FSunny.10 mph13%29.86 "Hg10 mi
1:00 PM90 °FSunny.10 mph14%29.86 "Hg10 mi
12:30 PM90 °FSunny.10 mph14%29.86 "Hg10 mi
12:00 PM88 °FSunny.8 mph16%29.86 "Hg10 mi
11:30 AM88 °FPassing clouds.8 mph17%29.86 "HgN/A
11:00 AM86 °FSunny.6 mph18%29.86 "Hg10 mi
10:30 AM86 °FPassing clouds.6 mph19%29.86 "HgN/A
10:00 AM81 °FSunny.3 mph26%29.86 "Hg10 mi
9:30 AM81 °FPassing clouds.3 mph24%29.86 "HgN/A
9:00 AM75 °FPassing clouds.6 mph29%29.86 "HgN/A
8:30 AM73 °FSunny.6 mph31%29.86 "Hg10 mi
8:00 AM68 °FSunny.3 mph35%29.83 "Hg10 mi
7:30 AM66 °FSunny.6 mph40%29.83 "Hg10 mi
7:00 AM63 °FClear.6 mph42%29.80 "Hg10 mi
6:30 AM61 °FClear.6 mph45%29.80 "Hg10 mi
6:00 AM61 °FClear.6 mph45%29.80 "Hg10 mi
5:30 AM61 °FClear.3 mph45%29.80 "Hg10 mi
5:00 AM63 °FClear.3 mph39%29.80 "Hg10 mi
4:30 AM64 °FClear.6 mph37%29.80 "Hg10 mi
4:00 AM66 °FClear.6 mph32%29.77 "Hg10 mi
3:30 AM66 °FClear.6 mph32%29.77 "Hg10 mi
3:00 AM66 °FClear.6 mph35%29.77 "Hg10 mi
2:00 AM68 °FClear.6 mph38%29.77 "Hg10 mi
1:00 AM72 °FClear.3 mph33%29.77 "Hg10 mi
12:00 AM72 °FClear.6 mph44%29.77 "Hg10 mi
11:00 PM
Wed, Jul 29
73 °FClear.6 mph38%29.77 "Hg10 mi
10:00 PM79 °FSunny.3 mph32%29.74 "Hg10 mi
Weather by CustomWeather, © 2015

See weather overviewHow to use our weather pages